Regional Weather Roundup
Issued by NWS

Home | Current Version | Previous Version | Graphics & Text | Print | Product List | Glossary On
Versions: 1 2 3 4 5 6 7 8 9 10 11 12 13 14 15 16 17 18 19 20 21 22 23 24 25 26 27 28 29 30 31 32 33 34 35 36 37 38 39 40 41 42 43 44 45 46 47 48 49 50
000
ASUS43 KLOT 240608
RWRIL

ILLINOIS REGIONAL WEATHER ROUNDUP
NATIONAL WEATHER SERVICE CHICAGO/ROMEOVILLE IL
1200 AM CST WED JAN 24 2018

NOTE: "FAIR" INDICATES FEW OR NO CLOUDS BELOW 12,000 FEET WITH NO
SIGNIFICANT WEATHER AND/OR OBSTRUCTIONS TO VISIBILITY.

* THESE STATIONS ARE NOT UNDER NWS QUALITY CONTROL. THEY ALSO MAY NOT
  REPORT WEATHER SUCH AS PRECIPITATION OR FOG.

ILZ001-002-007-009-015-016-024-240700-
NORTHWEST ILLINOIS

CITY           SKY/WX    TMP DP  RH WIND       PRES   REMARKS
MOLINE         CLOUDY    26  19  74 W10       30.21S WCI  16
6HR MIN TEMP:  26; 6HR MAX TEMP:  29;

STERLING*      CLOUDY    26  22  84 MISG        N/A
SAVANNA*       CLOUDY    25  21  83 N5        30.21R WCI  19
$$

ILZ003-004-008-010-011-017-018-240700-
NORTH CENTRAL ILLINOIS

CITY           SKY/WX    TMP DP  RH WIND       PRES   REMARKS
ROCKFORD       FLURRIES  27  22  81 W5        30.17F WCI  22
6HR MIN TEMP:  27; 6HR MAX TEMP:  28; 6HR PCP: TRACE;

FREEPORT*      CLOUDY    26  22  87 NW3       30.18S
ROCHELLE*      CLOUDY    27  25  93 NW6       30.17F FOG     WCI  20
DE KALB*       CLOUDY    28  25  89 NW3       30.15F
PERU*          CLOUDY    25  22  87 W9        30.20S WCI  16
$$

ILZ005-006-012>014-019>023-240700-
NORTHEAST ILLINOIS

CITY           SKY/WX    TMP DP  RH WIND       PRES   REMARKS
CHICAGO-OHARE  CLOUDY    28  22  78 NW9       30.15F WCI  19
6HR MIN TEMP:  28; 6HR MAX TEMP:  30; 6HR PCP: TRACE;

CHICAGO-MIDWAY CLOUDY    29  23  78 NW8       30.16S WCI  21
6HR MIN TEMP:  29; 6HR MAX TEMP:  30;

AURORA         CLOUDY    28  24  85 NW8       30.16S WCI  20
6HR MIN TEMP:  28; 6HR MAX TEMP:  30;

LANSING*       CLOUDY    29  24  84 NW3       30.17S
JOLIET*        CLOUDY    31  26  83 CALM      30.17S
WAUKEGAN       CLOUDY    27  23  85 VRB3      30.15R
6HR MIN TEMP:  27; 6HR MAX TEMP:  28;

DUPAGE AIRPORT CLOUDY    27  24  89 NW6       30.15S WCI  20
6HR MIN TEMP:  27; 6HR MAX TEMP:  28;

KANKAKEE*      CLOUDY   N/A N/A N/A W7        30.17F
WHEELING       CLOUDY    29  22  75 W7        30.17S WCI  22
6HR MIN TEMP:  29; 6HR MAX TEMP:  30;

MORRIS*        CLOUDY    29  26  88 W9        30.17S WCI  21
ROMEOVILLE*    CLOUDY    28  25  87 N3        30.16F
NORTHERLY ISL    N/A     28  22  78 NW5         N/A  WCI  23
$$

LMZ740>746-240700-
SOUTHERN LAKE MICHIGAN

STATION/POSITION SKY/WX   TEMP    WIND        PRES    VSBY  WAVE
                          AIR SEA DIR/SP/G                  HT/PER
                          (F)     (DEG/KT/KT) (MB)    (MI)  (FT/S)
HARRISON CRIB              29     320/  9/ 10   N/A
BURNHAM HARBOR             28     320/  5/ 10   N/A
CALUMET HARBOR                    300/  5/  6 1020.8R
BURNS HARBOR               30     310/  9/ 14 1021.7R
MICHIGAN CITY              30     270/ 14/ 14   N/A
$$

ILZ025>027-034>036-040-047-049-050-058-095>099-240700-
WEST-CENTRAL ILLINOIS

CITY           SKY/WX    TMP DP  RH WIND       PRES   REMARKS
QUINCY         CLOUDY    27  22  81 NW13      30.24R WCI  16
GALESBURG*     CLOUDY    27  21  80 NW8       30.22S WCI  18
MACOMB*        CLOUDY    28  22  78 W9        30.25S WCI  19
JACKSONVILLE*  CLOUDY    29  24  81 NW10      30.23S WCI  20
PITTSFIELD*    CLOUDY    29  24  79 NW8       30.26R WCI  21
$$

ILZ028>032-037-038-041>044-048-051>054-059>061-240700-
CENTRAL ILLINOIS

CITY           SKY/WX    TMP DP  RH WIND       PRES   REMARKS
PONTIAC        CLOUDY    28  27  96 W12       30.21R WCI  17
BLOOMINGTON    CLOUDY    27  22  81 NW8       30.20S WCI  19
DECATUR        CLOUDY    29  23  78 W12       30.21F WCI  19
PEORIA         CLOUDY    29  21  72 W7        30.22R WCI  22
6HR MIN TEMP:  29; 6HR MAX TEMP:  31;

LACON*         CLOUDY    27  22  82 NW7       30.21R WCI  19
LINCOLN*       CLOUDY    30  24  79 W6        30.22S WCI  24
SPRINGFIELD    CLOUDY    30  24  78 NW7       30.23F WCI  23
6HR MIN TEMP:  30; 6HR MAX TEMP:  32;

TAYLORVILLE    CLOUDY    30  24  78 W9        30.23F WCI  21
6HR MIN TEMP:  30; 6HR MAX TEMP:  32;

$$

ILZ033-039-045-046-055>057-062-063-240700-
EAST-CENTRAL ILLINOIS

CITY           SKY/WX    TMP DP  RH WIND       PRES   REMARKS
CHAMPAIGN      CLOUDY    29  25  85 NW9       30.20S WCI  20
DANVILLE*      CLOUDY    29  26  89 W10       30.17R WCI  20
RANTOUL*       CLOUDY    31  27  86 W10G16    30.20S WCI  22
MATTOON        CLOUDY    30  25  81 W14       30.21S WCI  19
PARIS*         CLOUDY    31  27  88 W16       30.22S WCI  19
$$

ILZ079-100>102-240700-
SOUTHWEST ILLINOIS

CITY           SKY/WX    TMP DP  RH WIND       PRES   REMARKS
ALTON          CLOUDY    32  26  78 W10       30.26R WCI  24
BELLEVILLE     CLOUDY    35  22  61 W9        30.24F WCI  27
CAHOKIA*       CLOUDY    34  24  67 W6        30.25F WCI  29
SPARTA*        CLOUDY    33  26  75 W8        30.27F WCI  27
$$

ILZ064>066-069>071-074>076-080>082-084>086-088>090-092>094-240700-
SOUTH-CENTRAL ILLINOIS

CITY           SKY/WX    TMP DP  RH WIND       PRES   REMARKS
CARBONDALE     CLOUDY    35  26  69 W9        30.27F WCI  28
6HR MIN TEMP:  35; 6HR MAX TEMP:  37;

CAIRO*         FAIR      30  28  92 CALM      30.28S
EFFINGHAM*     CLOUDY    32  26  80 W8        30.26R WCI  25
MARION         CLOUDY    35  24  66 CALM      30.28F
MT. VERNON     CLOUDY    34  26  72 W5        30.26S WCI  30
CENTRALIA*     CLOUDY    34  28  78 CALM      30.25S
SALEM*         CLOUDY    34  28  80 CALM      30.25R
METROPOLIS*    CLOUDY    36  30  79 CALM      30.28F
$$

ILZ067-068-072-073-078-083-087-091-240700-
SOUTHEAST ILLINOIS

CITY           SKY/WX    TMP DP  RH WIND       PRES   REMARKS
LAWRENCEVILLE  CLOUDY    33  28  81 W12       30.25R WCI  24
FLORA*         CLOUDY    34  27  75 NW7       30.26R WCI  28
FAIRFIELD*     CLOUDY    33  28  80 CALM      30.26S
HARRISBURG*    CLOUDY    36  27  71 NW10G16   30.28S WCI  28
ROBINSON*      CLOUDY    31  28  86 NW7       30.25R WCI  24
CARMI*         CLOUDY    34  29  80 W7        30.27S WCI  28
$$

ABBREVIATIONS USED IN REMARKS
   TC - TEMPERATURE IN CELSIUS
  WCI - WIND CHILL INDEX
   HX - HEAT INDEX
  VSB - VISIBILITY
$$





USA.gov is the U.S. government's official web portal to all federal, state and local government web resources and services.